{"data":{"norad_id":67022,"intl_designator":"2025-293V","name":"STARLINK-36209","alt_names":[],"object_type":"PAYLOAD","status":"ACTIVE","operator":null,"country":"US","launch_date":"2025-12-10","launch_site_code":"AFWTR","launch_vehicle":null,"mission":null,"orbit_class":"UNKNOWN","rcs_meters":null,"size_class":null,"mass_kg":null,"dimensions":null,"purposes":["comms"],"wikipedia_slug":null,"has_3d_model":false,"image_url":null,"decayed_at":null,"tle_current":{"epoch":"2026-09-20T14:01:10.537536Z","epoch_age_seconds":74219,"freshness":"FRESH","line1":"1 67022U 25293V   26263.58414974  .00001473  00000+0  13118-3 0  9990","line2":"2 67022  70.0015 322.9565 0004132 269.3287  90.7398 14.98338228 44081","mean_motion":14.98338228,"eccentricity":0.0004132,"inclination_deg":70.0015,"raan_deg":322.9565,"arg_perigee_deg":269.3287,"mean_anomaly_deg":90.7398,"bstar":0.00013118,"rev_number":4408,"period_min":96.106471362086,"perigee_km":569.15863746063,"apogee_km":574.90225583854,"semimajor_km":6950.1674466496,"source":"CELESTRAK","updated_at":"2026-09-21T09:00:36.072252Z"}}}